ALSAT 1B

Last updated on Sat Jul 05 2025 00:02:29 GMT+0000 (Coordinated Universal Time)

1 41785U 16059C 25185.62874277 .00000303 00000+0 55968-4 0 9992 2 41785 97.7876 204.2784 0007908 262.2025 97.8285 14.71852874469444
UTC large
Height (km)
Speed (km/s)
/
Latitude / Longitude
Inclination (degrees)
Orbital Period (minutes)
Azimuth
Elevation
Range (km)
Doppler Factor

Next 0 passes for location: London (51.5072 / 0.1276)

Sorry there are no passes over London.